1509080400.94,44374,12.31,73252.0,-3.67,-6.89,-6.01,0,*52
1509080402.2,44375,12.38,73274.3,-3.67,-7.11,-6.19,0,*5A
1509080403.46,44376,12.38,73264.3,-3.67,-6.81,-5.85,0,*57
1509080404.69,44377,12.38,73212.5,-3.69,-6.85,-5.89,0,*50
1509080405.91,44378,12.38,73212.0,-3.69,-6.85,-5.93,0,*54
1509080407.14,44379,12.38,73226.8,-3.67,-6.81,-5.97,0,*5B
1509080408.4,44380,12.38,73208.0,-3.67,-6.81,-5.89,0,*52
1509080409.63,44381,12.38,73218.0,-3.67,-6.81,-5.97,0,*5C
1509080410.88,44382,12.38,73212.8,-3.67,-6.93,-6.01,0,*50
1509080412.11,44383,12.31,73228.5,-3.67,-6.81,-5.97,0,*5E
1509080413.33,44384,12.38,73236.3,-3.67,-6.81,-6.01,0,*55
1509080414.56,44385,12.38,73244.0,-3.69,-6.93,-6.05,0,*5D
1509080415.76,44386,12.38,73252.3,-3.69,-6.81,-6.01,0,*59
1509080416.99,44387,12.38,73254.8,-3.67,-6.77,-5.97,0,*53
1509080418.21,44388,12.38,73242.5,-3.67,-6.77,-5.97,0,*5C
1509080419.44,44389,12.38,73244.5,-3.67,-6.81,-6.01,0,*58
1509080420.67,44390,12.38,73250.8,-3.67,-6.81,-6.01,0,*50
1509080421.9,44391,12.38,73258.0,-3.67,-6.81,-6.01,0,*51
1509080423.12,44392,12.38,73264.0,-3.67,-6.77,-5.97,0,*57
1509080424.35,44393,12.38,73256.3,-3.67,-6.77,-5.97,0,*56
1509080425.58,44394,12.38,73260.8,-3.67,-6.77,-6.01,0,*5D
1509080426.78,44395,12.38,73264.0,-3.65,-6.77,-5.97,0,*52
1509080428.03,44396,12.38,73262.3,-3.67,-7.01,-6.01,0,*5F
1509080429.28,44397,12.38,73266.8,-3.67,-7.01,-6.13,0,*5D
1509080430.5,44398,12.38,73256.0,-3.69,-7.05,-6.13,0,*58
1509080431.75,44399,12.38,73262.0,-3.67,-7.01,-6.09,0,*58
1509080433.0,44400,12.38,73254.8,-3.67,-7.05,-6.09,0,*5B
1509080434.22,44401,12.38,73250.0,-3.67,-7.11,-6.09,0,*5F
1509080435.45,44402,12.38,73250.0,-3.67,-7.19,-6.09,0,*54
1509080436.68,44403,12.38,73258.3,-3.67,-7.19,-6.13,0,*5E
1509080437.91,44404,12.38,73254.0,-3.67,-7.23,-6.13,0,*50
1509080439.15,44405,12.38,73252.0,-3.65,-7.31,-6.27,0,*57
1509080440.4,44406,12.38,73260.8,-3.67,-7.43,-6.13,0,*54
1509080441.65,44407,12.38,73258.3,-3.67,-7.35,-6.13,0,*54
1509080442.87,44408,12.38,73256.3,-3.65,-7.31,-6.13,0,*5D
1509080444.12,44409,12.38,73262.3,-3.67,-7.35,-6.09,0,*51
1509080445.37,44410,12.38,73266.0,-3.67,-7.31,-6.09,0,*5D
1509080446.59,44411,12.38,73264.0,-3.65,-7.31,-6.09,0,*5E
1509080447.84,44412,12.38,73264.3,-3.67,-7.31,-6.01,0,*57
1509080449.06,44413,12.38,73256.0,-3.65,-7.35,-6.01,0,*50
1509080450.31,44414,12.38,73256.8,-3.67,-7.31,-5.97,0,*5D
1509080451.55,44415,12.38,73254.5,-3.67,-7.31,-6.01,0,*50
1509080452.78,44416,12.38,73256.3,-3.65,-7.43,-6.01,0,*54
1509080454.0,44417,12.38,73262.3,-3.65,-7.31,-6.01,0,*50
1509080455.25,44418,12.38,73266.3,-3.67,-7.35,-6.13,0,*5A
1509080456.53,44419,12.38,73264.0,-3.67,-7.43,-6.27,0,*5D
1509080457.8,44420,12.38,73260.3,-3.67,-7.61,-6.27,0,*57
1509080459.05,44421,12.38,73266.5,-3.67,-7.49,-6.27,0,*5C
1509080460.33,44422,12.38,73264.5,-3.67,-7.43,-6.27,0,*55
1509080461.58,44423,12.38,73266.5,-3.67,-7.49,-6.19,0,*53
1509080462.84,44424,12.38,73266.8,-3.67,-7.57,-6.31,0,*51
1509080464.12,44425,12.38,73268.8,-3.67,-7.61,-6.27,0,*52
1509080465.37,44426,12.31,73264.3,-3.67,-7.69,-6.39,0,*56
1509080466.62,44427,12.38,73268.3,-3.67,-7.61,-6.31,0,*57
1509080467.88,44428,12.38,73268.8,-3.67,-7.61,-6.31,0,*58
1509080469.11,44429,12.38,73268.0,-3.67,-7.83,-6.39,0,*5D
1509080470.31,44430,12.38,73266.3,-3.69,-7.87,-6.31,0,*57
1509080471.57,44431,12.38,73264.3,-3.67,-7.73,-6.31,0,*53
1509080472.86,44432,12.38,73266.5,-3.67,-7.73,-6.19,0,*5A
1509080474.1,44433,12.38,73260.0,-3.67,-7.69,-6.13,0,*5A
1509080475.35,44434,12.38,73264.0,-3.67,-7.69,-6.09,0,*56
1509080476.6,44435,12.38,73266.8,-3.67,-7.61,-6.01,0,*57
1509080477.83,44436,12.38,73268.0,-3.69,-7.65,-6.01,0,*5E
1509080479.07,44437,12.38,73264.5,-3.67,-7.69,-6.09,0,*55
1509080480.3,44438,12.38,73270.3,-3.67,-7.83,-6.09,0,*5E
1509080481.52,44439,12.38,73266.5,-3.69,-7.73,-6.05,0,*52
1509080482.78,44440,12.38,73262.8,-3.67,-7.73,-6.01,0,*56
1509080484.0,44441,12.38,73260.5,-3.67,-7.83,-6.01,0,*58
1509080485.26,44442,12.31,73256.8,-3.67,-7.73,-5.97,0,*58
1509080486.48,44443,12.38,73256.3,-3.69,-7.77,-6.01,0,*5F
1509080487.7,44444,12.38,73256.0,-3.69,-7.77,-6.05,0,*5C
1509080488.92,44445,12.31,73248.5,-3.69,-7.77,-6.01,0,*59
1509080490.18,44446,12.38,73244.3,-3.69,-7.73,-5.89,0,*5D
1509080491.46,44447,12.38,73246.5,-3.71,-7.61,-5.89,0,*56
1509080492.71,44448,12.38,73250.3,-3.69,-7.65,-5.93,0,*5F
1509080493.94,44449,12.31,73254.8,-3.69,-7.73,-6.01,0,*51
1509080495.16,44450,12.31,73250.8,-3.69,-7.65,-6.01,0,*5E
1509080496.39,44451,12.31,73246.5,-3.69,-7.53,-5.93,0,*52
1509080497.62,44452,12.38,73248.5,-3.69,-7.49,-5.89,0,*51
1509080498.88,44453,12.31,73250.8,-3.71,-7.39,-5.89,0,*5E
1509080500.15,44454,12.38,73252.8,-3.71,-7.27,-5.81,0,*5E
1509080501.4,44455,12.31,73244.0,-3.69,-7.39,-5.93,0,*5A
1509080502.67,44456,12.31,73246.3,-3.71,-7.35,-5.93,0,*5C
1509080503.92,44457,12.38,73250.3,-3.71,-7.23,-5.89,0,*51
1509080505.2,44458,12.31,73250.3,-3.71,-7.35,-5.89,0,*59
1509080506.47,44459,12.31,73250.5,-3.71,-7.27,-5.89,0,*5B
1509080507.72,44460,12.31,73246.3,-3.71,-7.11,-5.77,0,*55
1509080508.99,44461,12.38,73242.3,-3.71,-6.93,-5.69,0,*50
1509080510.24,44462,12.38,73226.0,-3.71,-6.85,-5.69,0,*54
1509080511.46,44463,12.38,73226.3,-3.71,-6.69,-5.51,0,*5C
1509080512.69,44464,12.38,73230.5,-3.71,-6.59,-5.51,0,*58
1509080513.91,44465,12.38,73230.5,-3.71,-6.47,-5.43,0,*55
1509080515.13,44466,12.38,73226.8,-3.71,-6.55,-5.55,0,*52
1509080516.36,44467,12.38,73222.5,-3.71,-6.43,-5.55,0,*54
1509080517.59,44468,12.31,73220.5,-3.71,-6.35,-5.51,0,*5E
1509080518.84,44469,12.31,73236.0,-3.71,-6.19,-5.43,0,*52
1509080520.06,44470,12.31,73236.3,-3.71,-6.13,-5.39,0,*5D
1509080521.29,44471,12.38,73236.3,-3.71,-6.31,-5.55,0,*56
1509080522.56,44472,12.31,73232.5,-3.71,-6.23,-5.65,0,*55
1509080523.8,44473,12.38,73220.3,-3.69,-6.19,-5.55,0,*57
1509080525.01,44474,12.38,73228.3,-3.71,-6.05,-5.43,0,*53
1509080526.24,44475,12.38,73228.5,-3.71,-6.05,-5.51,0,*51
1509080527.46,44476,12.38,73226.3,-3.71,-6.05,-5.51,0,*52
1509080528.68,44477,12.38,73234.3,-3.71,-6.05,-5.43,0,*50
1509080529.88,44478,12.38,73244.5,-3.69,-6.01,-5.39,0,*5F
1509080531.12,44479,12.38,73236.3,-3.71,-5.89,-5.43,0,*59
1509080532.37,44480,12.31,73230.0,-3.71,-5.89,-5.43,0,*5F
1509080533.62,44481,12.38,73244.5,-3.71,-5.81,-5.43,0,*56
1509080534.86,44482,12.38,73246.3,-3.71,-5.81,-5.43,0,*55
1509080536.11,44483,12.38,73236.8,-3.71,-5.77,-5.39,0,*50
1509080537.36,44484,12.38,73234.5,-3.71,-5.81,-5.51,0,*50
1509080538.61,44485,12.38,73248.0,-3.71,-5.81,-5.51,0,*51
1509080539.86,44486,12.31,73246.3,-3.71,-5.81,-5.51,0,*52
1509080541.11,44487,12.38,73258.3,-3.71,-5.77,-5.51,0,*5A
1509080542.36,44488,12.38,73254.3,-3.71,-5.89,-5.51,0,*54
1509080543.61,44489,12.38,73254.3,-3.71,-5.65,-5.39,0,*59
1509080544.84,44490,12.31,73262.0,-3.69,-5.65,-5.39,0,*58
1509080546.07,44491,12.38,73252.3,-3.69,-5.65,-5.39,0,*59
1509080547.31,44492,12.38,73250.5,-3.71,-5.69,-5.43,0,*52
1509080548.57,44493,12.38,73242.3,-3.71,-5.81,-5.55,0,*52
1509080549.82,44494,12.38,73234.3,-3.71,-5.81,-5.55,0,*55
1509080551.09,44495,12.38,73256.3,-3.71,-5.89,-5.69,0,*53
1509080552.37,44496,12.38,73236.0,-3.71,-5.89,-5.69,0,*50
1509080553.64,44497,12.38,73238.0,-3.71,-5.93,-5.69,0,*5A
1509080554.92,44498,12.38,73234.3,-3.71,-5.89,-5.69,0,*5E
1509080556.19,44499,12.38,73248.0,-3.71,-5.89,-5.69,0,*5F
1509080557.44,44500,12.38,73244.8,-3.73,-5.97,-5.81,0,*55
1509080558.72,44501,12.38,73224.8,-3.73,-5.81,-5.69,0,*55
1509080560.01,44502,12.38,73212.3,-3.73,-5.93,-5.81,0,*53
1509080561.29,44503,12.38,73214.8,-3.73,-5.81,-5.69,0,*57
1509080562.57,44504,12.38,73222.8,-3.73,-5.69,-5.61,0,*5E
1509080563.82,44505,12.38,73222.0,-3.73,-5.73,-5.55,0,*53
1509080565.1,44506,12.38,73250.8,-3.73,-5.81,-5.73,0,*59
1509080566.32,44507,12.31,73246.3,-3.71,-5.55,-5.43,0,*50
1509080567.55,44508,12.38,73262.0,-3.71,-5.51,-5.51,0,*58
1509080568.83,44509,12.31,73236.5,-3.71,-5.89,-5.89,0,*59
1509080570.08,44510,12.31,73222.5,-3.71,-6.01,-5.89,0,*52
1509080571.35,44511,12.38,73228.8,-3.71,-5.89,-5.81,0,*58
1509080572.64,44512,12.38,73248.3,-3.73,-5.93,-5.85,0,*56
1509080573.89,44513,12.38,73226.3,-3.73,-5.97,-5.85,0,*53
1509080575.15,44514,12.38,73228.5,-3.73,-6.05,-5.85,0,*5C
1509080576.4,44515,12.31,73234.3,-3.73,-6.05,-5.85,0,*5D
1509080577.63,44516,12.38,73238.5,-3.73,-6.09,-5.97,0,*51
1509080578.9,44517,12.31,73242.5,-3.71,-6.19,-5.93,0,*57
1509080580.17,44518,12.38,73244.3,-3.71,-6.23,-5.93,0,*51
1509080581.39,44519,12.38,73256.8,-3.71,-6.31,-6.01,0,*5B
1509080582.62,44520,12.38,73256.5,-3.71,-6.35,-6.01,0,*55
1509080583.83,44521,12.38,73260.0,-3.71,-6.47,-6.01,0,*51
1509080585.08,44522,12.31,73256.8,-3.71,-6.55,-5.93,0,*59
1509080586.33,44523,12.38,73262.3,-3.71,-6.47,-5.89,0,*50
1509080587.58,44524,12.38,73262.3,-3.71,-6.69,-5.89,0,*5B
1509080588.79,44525,12.38,73258.0,-3.71,-6.85,-6.05,0,*5F
1509080590.04,44526,12.38,73258.3,-3.71,-6.93,-6.05,0,*5B
1509080591.29,44527,12.38,73258.0,-3.71,-6.85,-5.89,0,*5A
1509080592.57,44528,12.31,73256.5,-3.71,-6.93,-5.89,0,*52
1509080593.84,44529,12.38,73260.0,-3.71,-6.93,-5.93,0,*58
1509080595.08,44530,12.38,73266.0,-3.71,-6.85,-5.77,0,*5D
1509080596.33,44531,12.38,73270.5,-3.71,-6.85,-5.69,0,*53
1509080597.58,44532,12.38,73268.0,-3.71,-6.85,-5.69,0,*50
1509080598.85,44533,12.38,73270.0,-3.71,-7.05,-5.81,0,*5E
1509080600.1,44534,12.31,73266.0,-3.71,-7.11,-5.89,0,*54
1509080601.38,44535,12.38,73270.5,-3.71,-7.05,-5.89,0,*50
1509080602.65,44536,12.38,73266.3,-3.71,-6.97,-5.81,0,*51
1509080603.92,44537,12.31,73248.8,-3.71,-6.97,-5.77,0,*59
1509080605.17,44538,12.38,73254.8,-3.71,-6.85,-5.69,0,*5A
1509080606.42,44539,12.38,73276.3,-3.71,-6.85,-5.65,0,*57
1509080607.69,44540,12.38,73262.0,-3.71,-6.97,-5.81,0,*50
1509080608.97,44541,12.38,73252.8,-3.71,-6.97,-5.93,0,*52
1509080610.24,44542,12.38,73262.3,-3.71,-6.93,-5.77,0,*5F
1509080611.47,44543,12.38,73264.0,-3.75,-6.77,-5.61,0,*57
1509080612.72,44544,12.38,73270.5,-3.73,-6.85,-5.73,0,*58
1509080613.96,44545,12.38,73256.3,-3.71,-6.73,-5.69,0,*59
1509080615.19,44546,12.38,73250.8,-3.69,-6.85,-5.69,0,*5A
1509080616.47,44547,12.38,73258.3,-3.71,-6.93,-5.89,0,*5B
1509080617.72,44548,12.38,73268.0,-3.71,-7.11,-5.93,0,*54
1509080619.0,44549,12.38,73262.8,-3.73,-7.01,-5.93,0,*56
1509080620.26,44550,12.31,73256.5,-3.73,-7.11,-5.81,0,*5C
1509080621.5,44551,12.38,73250.3,-3.71,-6.85,-5.77,0,*5A
1509080622.75,44552,12.38,73248.0,-3.71,-6.85,-5.81,0,*50
1509080623.97,44553,12.38,73242.5,-3.75,-6.89,-5.81,0,*59
1509080625.25,44554,12.38,73250.8,-3.73,-6.97,-5.85,0,*53
1509080626.5,44555,12.38,73240.5,-3.73,-6.89,-5.81,0,*59
1509080627.75,44556,12.38,73246.5,-3.73,-6.85,-5.73,0,*5B
1509080629.0,44557,12.38,73250.5,-3.73,-6.77,-5.73,0,*57
1509080630.26,44558,12.38,73270.5,-3.73,-6.85,-5.69,0,*5E
1509080631.51,44559,12.38,73256.8,-3.73,-6.85,-5.61,0,*57
1509080632.74,44560,12.38,73256.8,-3.75,-6.73,-5.61,0,*52
1509080633.96,44561,12.31,73258.5,-3.75,-6.63,-5.55,0,*55
1509080635.17,44562,12.38,73266.0,-3.75,-6.73,-5.55,0,*57
1509080636.39,44563,12.38,73264.0,-3.75,-6.73,-5.61,0,*51
1509080637.65,44564,12.38,73246.5,-3.73,-6.77,-5.61,0,*54
1509080638.9,44565,12.31,73240.3,-3.73,-6.85,-5.73,0,*5B
1509080640.15,44566,12.38,73244.8,-3.73,-6.85,-5.81,0,*55
1509080641.37,44567,12.38,73246.8,-3.75,-6.85,-5.69,0,*54
1509080642.63,44568,12.31,73240.0,-3.73,-6.77,-5.73,0,*5B
1509080643.88,44569,12.38,73234.5,-3.73,-6.89,-5.81,0,*56
1509080645.1,44570,12.38,73226.8,-3.75,-6.73,-5.69,0,*5B
1509080646.33,44571,12.31,73232.5,-3.75,-6.85,-5.85,0,*51
1509080647.55,44572,12.38,73242.0,-3.75,-6.59,-5.73,0,*5A
1509080648.75,44573,12.38,73240.0,-3.75,-6.39,-5.55,0,*59
1509080649.98,44574,12.38,73232.5,-3.75,-6.35,-5.61,0,*55
1509080651.24,44575,12.38,73240.8,-3.73,-6.35,-5.61,0,*52
1509080652.47,44576,12.38,73238.3,-3.75,-6.35,-5.69,0,*5F
1509080653.7,44577,12.38,73232.3,-3.75,-6.51,-5.69,0,*5C
1509080654.92,44578,12.38,73224.8,-3.75,-6.47,-5.69,0,*54
1509080656.16,44579,12.38,73236.0,-3.75,-6.27,-5.73,0,*58
1509080657.41,44580,12.38,73236.3,-3.75,-6.27,-5.69,0,*55
1509080658.69,44581,12.38,73236.5,-3.73,-6.19,-5.69,0,*5F
1509080659.95,44582,12.38,73240.8,-3.73,-6.19,-5.55,0,*53
1509080661.18,44583,12.38,73240.3,-3.73,-6.09,-5.55,0,*53
1509080662.38,44584,12.38,73234.0,-3.75,-5.97,-5.47,0,*55
1509080663.61,44585,12.38,73230.5,-3.73,-5.97,-5.47,0,*52
1509080664.83,44586,12.38,73234.0,-3.71,-6.01,-5.43,0,*5B
1509080666.07,44587,12.38,73236.8,-3.73,-6.09,-5.55,0,*57
1509080667.3,44588,12.38,73240.0,-3.73,-5.97,-5.55,0,*5C
1509080668.5,44589,12.38,73240.8,-3.75,-5.97,-5.55,0,*5B
1509080669.77,44590,12.38,73252.8,-3.73,-5.93,-5.55,0,*51
1509080671.02,44591,12.38,73248.5,-3.73,-5.93,-5.43,0,*57
1509080672.28,44592,12.38,73256.8,-3.73,-5.85,-5.43,0,*53
1509080673.54,44593,12.38,73262.8,-3.73,-5.85,-5.55,0,*55
1509080674.8,44594,12.38,73256.8,-3.73,-5.93,-5.47,0,*56
1509080676.06,44595,12.38,73256.0,-3.73,-5.93,-5.55,0,*54
1509080677.31,44596,12.38,73258.3,-3.73,-5.73,-5.43,0,*5E
1509080678.53,44597,12.38,73258.8,-3.75,-5.85,-5.47,0,*54
1509080679.8,44598,12.38,73260.8,-3.73,-5.85,-5.55,0,*5E
1509080681.05,44599,12.38,73262.0,-3.73,-5.81,-5.43,0,*5C
1509080682.3,44600,12.38,73260.5,-3.73,-5.69,-5.43,0,*59
1509080683.55,44601,12.38,73256.8,-3.73,-5.69,-5.39,0,*55
1509080684.81,44602,12.38,73256.0,-3.73,-5.69,-5.43,0,*5B
1509080686.06,44603,12.38,73254.3,-3.73,-5.69,-5.43,0,*5A
1509080687.3,44604,12.38,73252.0,-3.73,-5.73,-5.43,0,*56
1509080688.55,44605,12.38,73248.8,-3.73,-5.61,-5.39,0,*59
1509080689.76,44606,12.38,73256.3,-3.75,-5.55,-5.39,0,*5B
1509080691.01,44607,12.38,73266.0,-3.71,-5.51,-5.27,0,*55
1509080692.23,44608,12.38,73268.3,-3.71,-5.51,-5.35,0,*59
1509080693.49,44609,12.38,73264.8,-3.73,-5.47,-5.31,0,*59
1509080694.75,44610,12.38,73264.3,-3.73,-5.43,-5.27,0,*52
1509080696.0,44611,12.38,73264.3,-3.73,-5.43,-5.27,0,*53
1509080697.26,44612,12.38,73266.3,-3.73,-5.47,-5.31,0,*53
1509080698.51,44613,12.38,73260.8,-3.71,-5.39,-5.23,0,*5A
1509080699.74,44614,12.38,73256.5,-3.69,-5.39,-5.23,0,*54
1509080701.0,44615,12.38,73256.0,-3.71,-5.39,-5.23,0,*5C
1509080702.24,44616,12.38,73248.5,-3.71,-5.43,-5.27,0,*56
1509080703.49,44617,12.38,73256.0,-3.71,-5.35,-5.15,0,*57
1509080704.74,44618,12.38,73256.5,-3.71,-5.39,-5.27,0,*55
1509080705.99,44619,12.38,73254.8,-3.71,-5.65,-5.39,0,*52
1509080707.21,44620,12.38,73256.3,-3.71,-5.51,-5.35,0,*53
1509080708.44,44621,12.38,73254.3,-3.71,-5.51,-5.35,0,*52
1509080709.64,44622,12.38,73260.8,-3.69,-5.55,-5.43,0,*5D
1509080710.87,44623,12.38,73262.8,-3.71,-5.55,-5.43,0,*55
1509080712.1,44624,12.38,73262.5,-3.71,-5.55,-5.39,0,*5F
1509080713.32,44625,12.38,73266.0,-3.71,-5.55,-5.43,0,*53
1509080714.55,44626,12.38,73270.8,-3.71,-5.55,-5.43,0,*50
1509080715.8,44627,12.38,73268.8,-3.71,-5.65,-5.43,0,*52
1509080717.03,44628,12.38,73270.8,-3.73,-5.55,-5.43,0,*5C
1509080718.28,44629,12.38,73270.5,-3.73,-5.61,-5.43,0,*5A
1509080719.51,44630,12.38,73286.5,-3.73,-5.55,-5.43,0,*55
1509080720.76,44631,12.38,73284.3,-3.73,-5.61,-5.47,0,*57
1509080722.01,44632,12.38,73250.3,-3.73,-5.39,-5.31,0,*58
1509080723.24,44633,12.38,73240.8,-3.75,-5.39,-5.27,0,*58
1509080724.46,44634,12.38,73248.3,-3.73,-5.43,-5.39,0,*5B
1509080725.66,44635,12.38,73230.5,-3.75,-5.43,-5.39,0,*5C
1509080726.91,44636,12.38,73234.5,-3.73,-5.39,-5.27,0,*5B
1509080728.16,44637,12.38,73230.8,-3.71,-5.35,-5.27,0,*54
1509080729.4,44638,12.38,73220.8,-3.73,-5.55,-5.43,0,*5D
1509080730.62,44639,12.38,73226.5,-3.71,-5.51,-5.39,0,*57
1509080731.84,44640,12.38,73248.3,-3.71,-5.51,-5.39,0,*59
1509080733.13,44641,12.38,73246.3,-3.73,-5.31,-5.31,0,*54
1509080734.38,44642,12.38,73246.5,-3.73,-5.39,-5.27,0,*58
1509080735.64,44643,12.38,73252.3,-3.71,-5.39,-5.23,0,*5F
1509080736.87,44644,12.38,73258.5,-3.69,-5.35,-5.23,0,*5D
1509080738.12,44645,12.38,73260.5,-3.71,-5.43,-5.23,0,*54
1509080739.35,44646,12.38,73250.3,-3.69,-5.39,-5.23,0,*53
1509080740.57,44647,12.31,73238.5,-3.71,-5.43,-5.35,0,*51
1509080741.8,44648,12.38,73240.3,-3.69,-5.55,-5.27,0,*53
1509080743.04,44649,12.38,73248.5,-3.69,-5.55,-5.27,0,*52
1509080744.25,44650,12.38,73246.5,-3.69,-5.55,-5.35,0,*59
1509080745.48,44651,12.38,73242.0,-3.71,-5.55,-5.35,0,*51
1509080746.75,44652,12.38,73242.8,-3.71,-5.69,-5.27,0,*5E
1509080747.99,44653,12.38,73248.3,-3.69,-5.93,-5.51,0,*52
1509080749.21,44654,12.38,73248.5,-3.69,-5.89,-5.39,0,*50
1509080750.44,44655,12.38,73244.0,-3.69,-5.89,-5.39,0,*51
1509080751.7,44656,12.38,73240.0,-3.69,-5.65,-5.23,0,*5B
1509080752.93,44657,12.38,73240.8,-3.69,-5.51,-5.11,0,*5C
1509080754.19,44658,12.38,73244.3,-3.69,-5.65,-5.23,0,*55
1509080755.47,44659,12.38,73252.8,-3.67,-5.61,-5.19,0,*57
1509080756.7,44660,12.38,73258.3,-3.65,-5.47,-5.11,0,*53
1509080757.93,44661,12.38,73258.3,-3.69,-5.55,-5.15,0,*59
1509080759.21,44662,12.38,73254.3,-3.67,-5.61,-5.19,0,*5F
1509080760.47,44663,12.38,73250.0,-3.67,-5.47,-5.11,0,*52
1509080761.71,44664,12.38,73254.5,-3.69,-5.55,-5.23,0,*59
1509080762.94,44665,12.38,73252.5,-3.69,-5.55,-5.15,0,*5D
1509080764.18,44666,12.38,73256.0,-3.69,-5.55,-5.23,0,*5B
1509080765.42,44667,12.38,73256.0,-3.69,-5.55,-5.15,0,*5F
1509080766.7,44668,12.38,73256.3,-3.67,-5.61,-5.19,0,*55
1509080767.98,44669,12.38,73262.0,-3.67,-5.61,-5.19,0,*54
1509080769.25,44670,12.38,73258.0,-3.67,-5.61,-5.19,0,*5C
1509080770.51,44671,12.31,73250.8,-3.67,-5.51,-5.19,0,*5E
1509080771.79,44672,12.38,73248.8,-3.67,-5.61,-5.23,0,*57
1509080773.06,44673,12.38,73248.3,-3.67,-5.51,-5.23,0,*55
1509080774.34,44674,12.38,73248.0,-3.67,-5.61,-5.31,0,*52
1509080775.6,44675,12.38,73248.0,-3.67,-5.47,-5.23,0,*54
1509080776.83,44676,12.38,73254.0,-3.65,-5.47,-5.23,0,*55
1509080778.09,44677,12.38,73258.0,-3.67,-5.47,-5.23,0,*56
1509080779.35,44678,12.38,73254.3,-3.67,-5.47,-5.23,0,*59
1509080780.59,44679,12.38,73252.3,-3.65,-5.47,-5.31,0,*59
1509080781.85,44680,12.38,73254.8,-3.67,-5.47,-5.31,0,*5D
1509080783.1,44681,12.38,73258.3,-3.67,-5.39,-5.23,0,*56
1509080784.36,44682,12.38,73258.3,-3.67,-5.51,-5.31,0,*58
1509080785.62,44683,12.38,73252.3,-3.67,-5.51,-5.31,0,*59
1509080786.88,44684,12.38,73256.3,-3.67,-5.47,-5.23,0,*5A
1509080788.14,44685,12.38,73254.3,-3.67,-5.35,-5.23,0,*5E
1509080789.4,44686,12.38,73264.5,-3.67,-5.39,-5.23,0,*51
1509080790.66,44687,12.38,73252.0,-3.67,-5.51,-5.31,0,*5D
1509080791.92,44688,12.38,73248.5,-3.67,-5.47,-5.23,0,*56
1509080793.15,44689,12.38,73250.8,-3.65,-5.47,-5.23,0,*55
1509080794.41,44690,12.38,73268.5,-3.67,-5.39,-5.23,0,*56
1509080795.67,44691,12.38,73266.5,-3.67,-5.39,-5.23,0,*57
1509080796.93,44692,12.38,73276.5,-3.67,-5.35,-5.19,0,*51
1509080798.16,44693,12.38,73272.5,-3.69,-5.39,-5.23,0,*5B
1509080799.42,44694,12.38,73256.8,-3.69,-5.27,-5.27,0,*57
1509080800.62,44695,12.38,73234.0,-3.69,-5.39,-5.35,0,*5A
1509080801.81,44696,12.38,73232.5,-3.69,-5.39,-5.35,0,*59
1509080803.01,44697,12.38,73200.5,-3.69,-5.39,-5.35,0,*58
1509080804.21,44698,12.38,73174.5,-3.69,-5.35,-5.35,0,*5B
1509080805.47,44699,12.38,73186.0,-3.67,-5.31,-5.35,0,*50
1509080806.69,44700,12.38,73182.8,-3.67,-5.39,-5.35,0,*59
1509080807.97,44701,12.38,73194.0,-3.67,-5.61,-5.61,0,*54
1509080809.17,44702,12.38,73212.5,-3.65,-5.39,-5.47,0,*5C
1509080810.4,44703,12.38,73208.3,-3.67,-5.39,-5.47,0,*5F
1509080811.6,44704,12.38,73222.8,-3.69,-5.43,-5.51,0,*5C
1509080812.8,44705,12.38,73226.8,-3.69,-5.43,-5.39,0,*53
1509080814.03,44706,12.38,73250.8,-3.67,-5.47,-5.39,0,*5A
1509080815.26,44707,12.38,73252.0,-3.69,-5.55,-5.65,0,*5F
1509080816.51,44708,12.38,73240.5,-3.69,-5.77,-5.77,0,*53
1509080817.76,44709,12.38,73252.8,-3.67,-5.65,-5.51,0,*5B
1509080819.02,44710,12.38,73260.0,-3.67,-5.61,-5.51,0,*57
1509080820.25,44711,12.38,73264.3,-3.69,-5.77,-5.55,0,*5B
1509080821.48,44712,12.38,73270.3,-3.69,-5.69,-5.55,0,*57
1509080822.73,44713,12.38,73276.8,-3.67,-5.73,-5.47,0,*50
1509080823.99,44714,12.38,73282.3,-3.67,-5.85,-5.51,0,*59
1509080825.25,44715,12.38,73278.5,-3.67,-5.85,-5.51,0,*58
1509080826.51,44716,12.38,73280.3,-3.67,-5.85,-5.51,0,*5B
1509080827.76,44717,12.38,73286.8,-3.67,-6.01,-5.65,0,*52
1509080829.0,44718,12.38,73290.8,-3.65,-6.01,-5.61,0,*5B
1509080830.25,44719,12.38,73278.0,-3.67,-6.13,-5.65,0,*5F
1509080831.53,44720,12.38,73276.8,-3.67,-6.19,-5.73,0,*58
1509080832.79,44721,12.38,73272.8,-3.67,-6.09,-5.61,0,*5B
1509080834.02,44722,12.38,73278.8,-3.67,-6.09,-5.47,0,*5C
1509080835.22,44723,12.38,73276.8,-3.65,-6.09,-5.47,0,*5F
1509080836.51,44724,12.38,73268.3,-3.67,-6.19,-5.61,0,*5F
1509080837.71,44725,12.38,73258.5,-3.65,-6.13,-5.47,0,*52
1509080838.97,44726,12.38,73252.5,-3.67,-6.01,-5.23,0,*52
1509080840.2,44727,12.38,73262.3,-3.65,-6.01,-5.23,0,*51
1509080841.46,44728,12.38,73264.0,-3.67,-6.09,-5.31,0,*57
1509080842.69,44729,12.38,73256.3,-3.67,-6.13,-5.39,0,*55
1509080843.92,44730,12.38,73266.5,-3.67,-6.13,-5.39,0,*5D
1509080845.18,44731,12.38,73266.3,-3.67,-6.09,-5.23,0,*5C
1509080846.47,44732,12.38,73262.8,-3.67,-6.19,-5.31,0,*5D
1509080847.7,44733,12.38,73254.5,-3.65,-6.13,-5.31,0,*54
1509080848.96,44734,12.38,73262.0,-3.65,-6.19,-5.23,0,*5A
1509080850.24,44735,12.38,73246.0,-3.67,-6.19,-5.31,0,*5A
1509080851.5,44736,12.38,73238.8,-3.65,-6.19,-5.31,0,*5B
1509080852.72,44737,12.38,73242.0,-3.65,-6.27,-5.35,0,*53
1509080853.92,44738,12.38,73246.0,-3.65,-6.39,-5.47,0,*56
1509080855.12,44739,12.38,73246.8,-3.65,-6.39,-5.47,0,*57
1509080856.35,44740,12.38,73244.3,-3.67,-6.39,-5.51,0,*5C
1509080857.55,44741,12.38,73228.8,-3.65,-6.43,-5.51,0,*52
1509080858.79,44742,12.38,73228.5,-3.67,-6.43,-5.51,0,*53
1509080859.98,44743,12.38,73262.0,-3.65,-6.39,-5.47,0,*5A
1509080861.23,44744,12.38,73230.8,-3.67,-6.27,-5.35,0,*55
1509080862.52,44745,12.38,73232.3,-3.67,-5.85,-4.85,0,*55
1509080863.8,44746,12.38,73210.5,-3.67,-5.85,-4.93,0,*51
1509080865.05,44747,12.38,73206.3,-3.65,-5.73,-4.85,0,*5C
1509080866.28,44748,12.38,73206.8,-3.65,-5.85,-4.99,0,*57
1509080867.51,44749,12.38,73212.3,-3.65,-5.97,-5.11,0,*54
1509080868.74,44750,12.38,73216.8,-3.65,-5.97,-5.19,0,*54
1509080869.97,44751,12.38,73232.3,-3.65,-6.01,-5.19,0,*59
1509080871.17,44752,12.38,73254.3,-3.65,-6.13,-5.35,0,*57
1509080872.39,44753,12.38,73238.5,-3.65,-6.27,-5.47,0,*54
1509080873.6,44754,12.38,73230.0,-3.65,-6.09,-5.39,0,*56
1509080874.83,44755,12.38,73250.3,-3.65,-5.97,-5.23,0,*58
1509080876.07,44756,12.38,73252.0,-3.65,-5.97,-5.23,0,*5B
1509080877.36,44757,12.38,73214.5,-3.67,-5.85,-5.23,0,*5B
1509080878.62,44758,12.38,73214.8,-3.65,-5.85,-5.23,0,*56
1509080879.9,44759,12.38,73222.0,-3.67,-5.89,-5.23,0,*59
1509080881.16,44760,12.38,73248.0,-3.65,-5.89,-5.23,0,*51
1509080882.45,44761,12.38,73224.3,-3.67,-5.85,-5.23,0,*5E
1509080883.71,44762,12.38,73228.3,-3.65,-5.61,-5.11,0,*54
1509080884.96,44763,12.38,73234.3,-3.65,-5.89,-5.31,0,*51
1509080886.22,44764,12.38,73232.0,-3.65,-5.89,-5.31,0,*56
1509080887.45,44765,12.38,73244.5,-3.65,-5.85,-5.35,0,*5F
1509080888.73,44766,12.38,73274.0,-3.67,-5.85,-5.31,0,*5A
1509080889.99,44767,12.38,73266.8,-3.65,-5.73,-5.23,0,*53
1509080891.27,44768,12.38,73264.8,-3.67,-5.65,-5.31,0,*5A
1509080892.5,44769,12.38,73256.0,-3.65,-5.47,-5.11,0,*5B
1509080893.76,44770,12.38,73242.3,-3.67,-5.51,-5.19,0,*5E
1509080895.04,44771,12.38,73218.0,-3.67,-5.65,-5.31,0,*52
1509080896.3,44772,12.38,73232.3,-3.67,-5.51,-5.23,0,*55
1509080897.54,44773,12.38,73248.5,-3.65,-5.51,-5.19,0,*5F
1509080898.79,44774,12.38,73248.5,-3.67,-5.47,-5.19,0,*5D
1509080900.03,44775,12.38,73244.8,-3.65,-5.47,-5.19,0,*5E
1509080901.26,44776,12.38,73242.3,-3.65,-5.47,-5.19,0,*5D
1509080902.51,44777,12.38,73244.0,-3.67,-5.31,-4.99,0,*56
1509080903.77,44778,12.38,73238.8,-3.65,-5.31,-5.07,0,*5D
1509080905.03,44779,12.38,73236.8,-3.67,-5.35,-5.19,0,*55
1509080906.26,44780,12.38,73244.0,-3.65,-5.47,-5.19,0,*54
1509080907.52,44781,12.38,73254.3,-3.67,-5.51,-5.19,0,*50
1509080908.75,44782,12.38,73254.0,-3.65,-5.51,-5.23,0,*58
1509080910.01,44783,12.38,73256.8,-3.67,-5.51,-5.31,0,*58
1509080911.25,44784,12.38,73242.0,-3.65,-5.51,-5.31,0,*5D
1509080912.48,44785,12.38,73240.0,-3.65,-5.47,-5.31,0,*5B
1509080913.71,44786,12.38,73232.8,-3.65,-5.65,-5.39,0,*50
1509080914.91,44787,12.38,73238.8,-3.65,-5.51,-5.39,0,*56